Home > Weather > Cagliari > Past weeks

Flag for Italy Past Weather in Cagliari, Italy — Yesterday and Last 2 Weeks

Now
72 °F

Clear.


Feels Like: 69 °F
Forecast: 66 / 92 °F
Wind: 6 mph from South

Location: Cagliari / Elmas

Current Time: Jul 1, 2016 at 4:51:17 AM

Latest Report: Jul 1, 2016 at 3:50 AM


Visibility: 10 mi

Pressure: 30.01 "Hg

Humidity: 88%

Dew Point: 68 °F

Location of CagliariLocation

Past Weather in Cagliari — Graph

°F

Cagliari Temperature Yesterday

Maximum temperature yesterday: 86 °F (at 1:50 PM)
Minimum temperature yesterday: 72 °F (at 1:50 AM)
Average temperature yesterday: 78 °F

High & Low Weather Summary for the Past Weeks

 TemperatureHumidityPressure
High97 °F (Jun 26, 1:50 PM)94% (Jun 21, 12:20 AM)30.18 "Hg (Jun 21, 12:20 AM)
Low59 °F (Jun 21, 6:20 AM)18% (Jun 25, 1:20 PM)29.53 "Hg (Jun 16, 3:50 AM)
Average75 °F60%30.01 "Hg
* Reported Jun 16 3:20 AM — Jul 1 3:20 AM, Cagliari, Weather by CustomWeather, © 2016

Note: Actual official high and low records may vary slightly from our data, if they occured in-between our weather recording intervals... More about our weather records

Advertising

Cagliari Weather History for the Previous 24 Hours

Scroll right to see more
 ConditionsComfort  
Time TempWeatherWind HumidityBarometerVisibility
3:20 AM
Fri, Jul 1
73 °FClear.6 mph83%30.01 "Hg10 mi
2:50 AM73 °FClear.6 mph83%30.01 "Hg10 mi
2:20 AM73 °FClear.7 mph83%30.01 "Hg10 mi
1:50 AM73 °FPassing clouds.5 mph83%30.01 "HgN/A
1:20 AM73 °FPassing clouds.6 mph89%30.01 "HgN/A
12:50 AM73 °FClear.7 mph89%30.01 "Hg10 mi
12:20 AM73 °FClear.6 mph89%30.01 "Hg10 mi
11:50 PM
Thu, Jun 30
75 °FClear.9 mph83%30.01 "Hg10 mi
11:20 PM75 °FClear.9 mph83%30.01 "Hg10 mi
10:50 PM75 °FClear.10 mph78%30.01 "Hg10 mi
10:20 PM77 °FPassing clouds.10 mph61%30.01 "HgN/A
9:50 PM77 °FSunny.16 mph65%29.98 "Hg10 mi
9:20 PM77 °FSunny.15 mph69%29.98 "Hg10 mi
8:50 PM77 °FSunny.14 mph74%29.98 "Hg10 mi
8:20 PM77 °FSunny.15 mph79%29.95 "Hg10 mi
7:50 PM77 °FSunny.14 mph74%29.95 "Hg10 mi
7:20 PM77 °FSunny.14 mph74%29.95 "Hg10 mi
6:50 PM77 °FPassing clouds.15 mph79%29.95 "HgN/A
6:20 PM79 °FSunny.17 mph74%29.95 "Hg10 mi
5:50 PM79 °FSunny.17 mph70%29.95 "Hg10 mi
5:20 PM81 °FSunny.16 mph66%29.92 "Hg10 mi
4:50 PM82 °FSunny.14 mph62%29.92 "Hg10 mi
4:20 PM84 °FSunny.10 mph48%29.95 "Hg10 mi
3:50 PM84 °FSunny.10 mph51%29.95 "Hg10 mi
3:20 PM86 °FSunny.13 mph43%29.95 "Hg10 mi
2:50 PM86 °FPassing clouds.12 mph33%29.95 "HgN/A
2:20 PM86 °FSunny.15 mph33%29.95 "Hg10 mi
1:50 PM86 °FSunny.14 mph35%29.95 "Hg10 mi
1:20 PM84 °FSunny.15 mph43%29.98 "Hg10 mi
12:50 PM84 °FSunny.13 mph45%29.98 "Hg10 mi
12:20 PM84 °FSunny.12 mph40%29.98 "Hg10 mi
11:50 AM82 °FPassing clouds.10 mph51%29.98 "HgN/A
11:20 AM82 °FPassing clouds.9 mph55%29.98 "HgN/A
10:50 AM81 °FSunny.12 mph62%29.98 "Hg10 mi
10:20 AM81 °FPassing clouds.10 mph62%29.98 "HgN/A
9:50 AM81 °FSunny.9 mph62%29.95 "Hg10 mi
9:20 AM79 °FSunny.10 mph70%29.98 "Hg10 mi
8:50 AM77 °FSunny.8 mph74%29.98 "Hg10 mi
8:20 AM77 °FSunny.6 mph74%29.98 "Hg10 mi
7:50 AM77 °FSunny.3 mph69%29.95 "Hg10 mi
7:20 AM75 °FSunny.3 mph74%29.95 "Hg10 mi
6:50 AM73 °FClear.6 mph74%29.95 "Hg10 mi
6:20 AM75 °FClear.12 mph69%29.95 "Hg10 mi
5:50 AM75 °FClear.14 mph65%29.95 "Hg10 mi
5:20 AM73 °FPassing clouds.6 mph69%29.95 "HgN/A
4:50 AM73 °FPassing clouds.5 mph69%29.92 "HgN/A
4:20 AM72 °FClear.6 mph73%29.92 "Hg10 mi
Weather by CustomWeather, © 2016

See weather overviewHow to use our weather pages